Regional Weather Roundup
Issued by NWS Midland/Odessa, TX

Current Version | Previous Version | Text Only | Print | Product List | Glossary On
Versions: 1 2 3 4 5 6 7 8 9 10 11 12 13 14 15 16 17 18 19 20 21 22 23 24 25 26 27 28 29 30 31 32 33 34 35 36 37 38 39 40 41 42 43 44 45 46 47 48 49 50
000
ASUS44 KMAF 240710
RWRMAF
MIDLAND AREA WEATHER ROUNDUP
NATIONAL WEATHER SERVICE MIDLAND TX
200 AM CDT TUE OCT 24 2017

...IN SOUTHWEST TEXAS AND SOUTHEAST NEW MEXICO...

CITY           SKY/WX    TMP DP  RH WIND       PRES   REMARKS
ALPINE         CLEAR     58  35  42 N10       30.43R
ANDREWS        FAIR      54  37  51 NE10G18   30.40R
ARTESIA        CLEAR     54  39  58 N13       30.47R
BIG SPRING     CLEAR     58  37  45 NE9G17    30.39R
CARLSBAD       CLEAR     57  41  55 N5        30.43R
DRYDEN           N/A     65  42  43 N14       30.25R
FORT STOCKTON  CLEAR     61  40  45 E14       30.34R
GUAD PASS      CLEAR     54  36  50 NE38      30.43R
HOBBS          CLEAR     54  36  50 NE15      30.43R
LAMESA         FAIR      54  34  47 NE12G18   30.41R
MARFA          CLEAR     57  35  43 N17       30.38R
MIDLAND AIRPK  CLEAR     58  40  51 NE12      30.38R
MIDLAND INTL   CLEAR     58  40  51 NE14      30.36R
ODESSA         CLEAR     56  40  55 NE13      30.37R
PECOS          CLEAR     57  40  54 N6        30.38R
PRESIDIO       FAIR      69  29  21 N10       30.22S
SEMINOLE       CLEAR     53  36  52 NE8       30.43R
SNYDER         CLEAR     55  36  48 NE10      30.39R
WINK           CLEAR     62  38  40 NE16      30.36R
$$
...OTHER STATIONS IN TEXAS...

CITY           SKY/WX    TMP DP  RH WIND       PRES   REMARKS
ABILENE        CLEAR     52  43  71 N7        30.35R
AMARILLO       CLOUDY    44  27  51 NW7       30.47R
AUSTIN         CLEAR     60  54  80 NW7       30.20R
BROWNSVILLE    PTCLDY    66  64  93 CALM      30.10S
CORPUS CHRISTI PTCLDY    60  54  80 NW3       30.12F
DALLAS FTW     CLEAR     61  42  49 N9        30.24R
DEL RIO        CLEAR     60  56  86 CALM      30.17R
EL PASO        CLEAR     67  34  29 NE13      30.31R
HOUSTON INT    CLEAR     58  54  86 W3        30.13S
LUBBOCK        PTCLDY    49  33  54 NE12      30.43R
SAN ANGELO     CLEAR     58  43  57 NE6       30.32R
SAN ANTONIO    PTCLDY    58  50  75 NW7       30.19R
WACO           CLEAR     59  49  69 N10       30.23R
WICHITA FALLS  CLEAR     50  30  46 NW13      30.23F
$$
...OTHER LOCATIONS IN NEW MEXICO...

CITY           SKY/WX    TMP DP  RH WIND       PRES   REMARKS
ALAMOGORDO     CLEAR     55  34  44 E7        30.33R
ALBUQUERQUE    PTCLDY    53  34  48 E21G30    30.44R
CANNON AFB     NOT AVBL
CLOVIS           N/A     42  30  62 N10       30.49S WCI  36
HOLLOMAN AFB   CLEAR     57  37  47 CALM      30.33R
ROSWELL        CLEAR     53  40  61 NW7       30.48R
RUIDOSO        CLEAR     43  32  65 SE8       30.58R WCI  38
SANTA FE       CLOUDY    45  34  65 S12       30.50R WCI  39
TRUTH OR CONSE CLEAR     64  28  25 N12       30.35S
TUCUMCARI      CLOUDY    42  29  59 NE6       30.49R WCI  38
$$



USA.gov is the U.S. government's official web portal to all federal, state and local government web resources and services.